Regional Weather Roundup
Issued by NWS

Home | Current Version | Previous Version | Graphics & Text | Print | Product List | Glossary On
Versions: 1 2 3 4 5 6 7 8 9 10 11 12 13 14 15 16 17 18 19 20 21 22 23 24 25 26 27 28 29 30 31 32 33 34 35 36 37 38 39 40 41 42 43 44 45 46 47 48 49 50
000
ASUS43 KDMX 080103
RWRIA

WEATHER ROUNDUP FOR IOWA
NATIONAL WEATHER SERVICE DES MOINES IA
700 PM CST SUN FEB 07 2016

NOTE: "FAIR" INDICATES FEW OR NO CLOUDS BELOW 12,000 FEET WITH NO
SIGNIFICANT WEATHER AND/OR OBSTRUCTIONS TO VISIBILITY.

* - THESE STATIONS ARE NOT NWS STATIONS...THUS NOT UNDER NWS
QUALITY CONTROL.  THEY ALSO DO NOT REPORT WEATHER SUCH
AS PRECIPITATION OR FOG.

IAZ001>003-012>014-020>022-031>034-043>046-080200-
   NORTHWEST IOWA

CITY           SKY/WX    TMP DP  RH WIND       PRES   REMARKS
CARROLL *      FLURRIES  34  28  80 NW28G38   29.87R WCI  20
CHEROKEE *     CLOUDY    32  27  80 NW21G33   29.90R WCI  20
DENISON *      CLOUDY    32  25  74 NW26G35   29.89R WCI  18
LE MARS *      MIX PCPN  32  25  74 NW31      29.95R WCI  17
ORANGE CITY *  CLOUDY    28  23  80 NW28G39   29.91R WCI  13
SHELDON *      CLOUDY    28  23  80 NW28G33   29.87R WCI  13
SIOUX CITY     FLURRIES  33  26  75 N26G35    29.94S WCI  20
SPENCER        MIX PCPN  30  23  75 NW30G39   29.85R WCI  15
STORM LAKE *   LGT SNOW  30  30 100 NW26G43   29.87R WCI  16
$$

IAZ055>058-069>071-079>083-090>094-080200-
   SOUTHWEST IOWA

CITY           SKY/WX    TMP DP  RH WIND       PRES   REMARKS
ATLANTIC *     CLOUDY    34  28  80 NW20G29   29.92R WCI  22
AUDUBON *      MIX PCPN  34  28  80 NW18G25   29.90R WCI  23
CLARINDA *     FLURRIES  36  32  87 W15       29.98S WCI  26
COUNCIL BLFS * FLURRIES  34  28  80 NW20G30   29.96R WCI  22
CRESTON *      LGT RAIN  34  32  93 W21G29    29.91S WCI  22
HARLAN  *      CLOUDY    34  28  80 NW23G38   29.95R WCI  22
LAMONI         CLOUDY    34  29  82 W20G25    29.91S WCI  23
RED OAK *      MOCLDY    36  30  80 NW22G33   29.96R WCI  24
SHENANDOAH *   FLURRIES  36  34  93 NW16G24   29.99R WCI  26
$$

IAZ047>049-059>061-072>074-084-080200-
   CENTRAL IOWA

CITY           SKY/WX    TMP DP  RH WIND       PRES   REMARKS
AMES           CLOUDY    34  30  85 W17       29.83S WCI  23
ANKENY *       CLOUDY    36  32  87 W13G23    29.85S WCI  27
BOONE *        CLOUDY    34  30  86 W17       29.82S WCI  23
CHARITON *     CLOUDY    36  28  75 W14       29.88R WCI  27
DES MOINES     CLOUDY    36  30  79 NW17      29.86S WCI  26
GRINNELL*      CLOUDY    34  30  86 W13       29.83S WCI  25
KNOXVILLE *    CLOUDY    34  30  86 W14       29.85S WCI  24
MARSHALLTOWN   CLOUDY    34  30  85 W15       29.80S WCI  24
NEWTON *       MIX PCPN  36  32  87 W16       29.83F WCI  26
PELLA *        MOCLDY    35  30  83 W12       29.86F WCI  26
$$

IAZ004>006-015-016-023>025-035-036-080200-
   NORTH CENTRAL IOWA

CITY           SKY/WX    TMP DP  RH WIND       PRES   REMARKS
ALGONA *       CLOUDY    32  28  86 NW23G30   29.80R WCI  19
CLARION *      FLURRIES  34  30  86 NW24      29.79S WCI  21
ESTHERVILLE    LGT SNOW  29  27  92 NW22      29.82R VSB 1   WCI  15
FORT DODGE *   CLOUDY    34  27  75 NW16G25   29.83R WCI  23
MASON CITY     CLOUDY    33  30  88 NW24G33   29.76S WCI  20
FOREST CITY *  LGT SNOW  32  32 100 NW17G24   29.76R WCI  21
WEBSTER CITY * FLURRIES  34  32  93 W24       29.79S WCI  21
IOWA FALLS *   FLURRIES  34  32  92 W22       29.79S WCI  22
$$

IAZ007>011-017>019-026>030-037>042-050>054-066-080200-
   NORTHEAST IOWA

CITY           SKY/WX    TMP DP  RH WIND       PRES   REMARKS
CEDAR RAPIDS   MOCLDY    34  29  82 W13       29.79S WCI  25
CHARLES CITY * CLOUDY    34  34 100 W16       29.74S WCI  23
CLINTON *      PTCLDY    34  29  82 W12       29.79F WCI  25
DECORAH *      FLURRIES  34  32  93 W9        29.69S WCI  26
DUBUQUE        CLEAR     33  28  81 W13       29.74S WCI  24
MONTICELLO *   CLEAR     36  28  75 W13       29.76F WCI  27
OELWEIN *      CLOUDY    34  30  86 W15       29.74F WCI  24
WATERLOO       CLOUDY    35  29  78 W15       29.76F WCI  25
$$

IAZ064-065-067-068-078-080200-
   EAST CENTRAL IOWA

CITY           SKY/WX    TMP DP  RH WIND       PRES   REMARKS
DAVENPORT      CLEAR     35  28  75 W10       29.80F WCI  27
IOWA CITY      PTCLDY    36  27  69 W14       29.83S WCI  27
MT. PLEASANT * MOCLDY    40  31  71 W15G24    29.85S WCI  31
MUSCATINE *    PTCLDY    37  27  65 W10       29.83S WCI  30
QUAD CITIES    CLEAR     35  27  72 W8        29.80F WCI  29
$$

IAZ062-063-075>077-085>089-095>099-080200-
   SOUTHEAST IOWA

CITY           SKY/WX    TMP DP  RH WIND       PRES   REMARKS
BURLINGTON     CLEAR     39  26  59 W5        29.82F
FAIRFIELD *    CLOUDY    36  28  75 W9        29.84F WCI  29
FORT MADISON * CLEAR     37  27  65 W3        29.85F
KEOKUK *       CLEAR     39  25  56 W7        29.85F WCI  34
OSKALOOSA *    MOCLDY    36  28  75 W12       29.86R WCI  27
OTTUMWA        CLOUDY    37  28  70 W20G30    29.86R WCI  27
WASHINGTON *   MOCLDY    37  28  70 W12       29.84S WCI  30
$$

ABBREVIATIONS USED IN REMARKS
   TC - TEMPERATURES IN CELSIUS
  WCI - WIND CHILL INDEX
   HX - HEAT INDEX
  VSB - VISIBILITY
$$




USA.gov is the U.S. government's official web portal to all federal, state and local government web resources and services.